When you browse on this site, cookies collect data to enhance your experience and personalize the content and advertising you see.
Visit our Privacy Policy to learn more. By continuing to use the site, you agree to this use of cookies and data.
  • In Czech Republic
  • List of Countries
  • For 7 days
  • Water Temperature
  • Satellite Maps
  • Weather Map
  • Weather Widgets
  • user-avatar
    Login

    Hourly Weather Zaranj

    Today, 23 March, Saturday

    Time Temperature Precipitation Wind Pressure Humidity
    00:00 +21°C° 0 mm 7 mps 718 mmHg 40%
    01:00 +20°C° 0 mm 7 mps 718 mmHg 43%
    02:00 +18°C° 0 mm 7 mps 719 mmHg 43%
    03:00 +18°C° 0 mm 7 mps 719 mmHg 43%
    04:00 +17°C° 0 mm 8 mps 719 mmHg 40%
    05:00 +17°C° 0 mm 7 mps 719 mmHg 40%
    06:00 +17°C° 0 mm 7 mps 720 mmHg 39%
    07:00 +16°C° 0 mm 6 mps 720 mmHg 39%
    08:00 +19°C° 0 mm 6 mps 720 mmHg 35%
    09:00 +20°C° 0 mm 5 mps 721 mmHg 31%
    10:00 +21°C° 0 mm 5 mps 721 mmHg 26%
    11:00 +22°C° 0 mm 4 mps 721 mmHg 25%
    12:00 +24°C° 0 mm 3 mps 721 mmHg 23%
    13:00 +25°C° 0 mm 2 mps 720 mmHg 22%
    14:00 +25°C° 0 mm 1 mps 720 mmHg 22%
    15:00 +25°C° 0 mm 1 mps 719 mmHg 22%
    16:00 +24°C° 0 mm 0 mps 719 mmHg 22%
    17:00 +23°C° 0 mm 0 mps 719 mmHg 23%
    18:00 +25°C° 0 mm 1 mps 719 mmHg 24%
    19:00 +25°C° 0 mm 1 mps 719 mmHg 25%
    20:00 +25°C° 0 mm 1 mps 719 mmHg 26%
    21:00 +24°C° 0 mm 1 mps 719 mmHg 26%
    22:00 +24°C° 0 mm 1 mps 719 mmHg 27%
    23:00 +23°C° 0 mm 1 mps 719 mmHg 28%

    Tomorrow, 24 March, Sunday

    Time Temperature Precipitation Wind Pressure Humidity
    00:00 +23°C° 0 mm 2 mps 719 mmHg 29%
    01:00 +23°C° 0 mm 2 mps 719 mmHg 29%
    02:00 +21°C° 0 mm 2 mps 718 mmHg 30%
    03:00 +21°C° 0 mm 2 mps 718 mmHg 31%
    04:00 +20°C° 0 mm 3 mps 718 mmHg 32%
    05:00 +20°C° 0 mm 2 mps 718 mmHg 32%
    06:00 +20°C° 0 mm 2 mps 718 mmHg 32%
    07:00 +20°C° 0 mm 2 mps 719 mmHg 33%
    08:00 +22°C° 0 mm 3 mps 719 mmHg 31%
    09:00 +24°C° 0 mm 3 mps 719 mmHg 30%
    10:00 +26°C° 0 mm 4 mps 719 mmHg 29%
    11:00 +27°C° 0 mm 4 mps 719 mmHg 28%
    12:00 +28°C° 0 mm 5 mps 718 mmHg 27%
    13:00 +29°C° 0 mm 5 mps 718 mmHg 26%
    14:00 +29°C° 0 mm 5 mps 717 mmHg 26%
    15:00 +29°C° 0 mm 5 mps 717 mmHg 26%
    16:00 +29°C° 0 mm 5 mps 716 mmHg 25%
    17:00 +28°C° 0 mm 4 mps 716 mmHg 28%
    18:00 +28°C° 0 mm 3 mps 716 mmHg 30%
    19:00 +27°C° 0 mm 2 mps 716 mmHg 32%
    20:00 +26°C° 0 mm 2 mps 717 mmHg 34%
    21:00 +26°C° 0 mm 1 mps 717 mmHg 37%
    22:00 +25°C° 0 mm 1 mps 717 mmHg 39%
    23:00 +24°C° 0.2 mm 1 mps 717 mmHg 40%

    Day after tomorrow, 25 March, Monday

    Time Temperature Precipitation Wind Pressure Humidity
    00:00 +24°C° 0.2 mm 1 mps 717 mmHg 42%
    01:00 +23°C° 0.2 mm 1 mps 717 mmHg 43%
    02:00 +23°C° 0 mm 2 mps 717 mmHg 43%
    03:00 +23°C° 0 mm 2 mps 717 mmHg 44%
    04:00 +21°C° 0 mm 3 mps 717 mmHg 44%
    05:00 +21°C° 0 mm 2 mps 717 mmHg 45%
    06:00 +21°C° 0 mm 2 mps 718 mmHg 46%
    07:00 +21°C° 0 mm 2 mps 718 mmHg 47%
    08:00 +24°C° 0 mm 1 mps 718 mmHg 43%
    09:00 +25°C° 0 mm 1 mps 719 mmHg 39%
    10:00 +27°C° 0 mm 1 mps 719 mmHg 35%
    11:00 +28°C° 0 mm 2 mps 719 mmHg 31%
    12:00 +29°C° 0 mm 2 mps 719 mmHg 28%
    13:00 +30°C° 0 mm 3 mps 719 mmHg 25%
    14:00 +31°C° 0 mm 2 mps 718 mmHg 24%
    15:00 +31°C° 0 mm 2 mps 718 mmHg 23%
    16:00 +31°C° 0 mm 2 mps 717 mmHg 22%
    17:00 +31°C° 0 mm 2 mps 717 mmHg 22%
    18:00 +30°C° 0 mm 3 mps 717 mmHg 23%
    19:00 +30°C° 0 mm 3 mps 717 mmHg 24%
    20:00 +29°C° 0 mm 3 mps 717 mmHg 25%
    21:00 +29°C° 0 mm 3 mps 717 mmHg 26%
    22:00 +28°C° 0 mm 3 mps 717 mmHg 26%
    23:00 +28°C° 0 mm 3 mps 717 mmHg 27%

    26 March, Tuesday

    Time Temperature Precipitation Wind Pressure Humidity
    00:00 +27°C° 0 mm 3 mps 717 mmHg 27%
    01:00 +27°C° 0 mm 2 mps 717 mmHg 28%
    02:00 +27°C° 0.4 mm 2 mps 717 mmHg 29%
    03:00 +26°C° 0.4 mm 2 mps 717 mmHg 31%
    04:00 +26°C° 0.4 mm 2 mps 716 mmHg 32%
    05:00 +26°C° 0 mm 3 mps 717 mmHg 34%
    06:00 +26°C° 0 mm 4 mps 717 mmHg 36%
    07:00 +27°C° 0 mm 4 mps 717 mmHg 38%
    08:00 +27°C° 0 mm 5 mps 718 mmHg 37%
    09:00 +28°C° 0 mm 6 mps 719 mmHg 37%
    10:00 +29°C° 0 mm 6 mps 720 mmHg 36%
    11:00 +30°C° 0 mm 6 mps 720 mmHg 34%
    12:00 +30°C° 0 mm 5 mps 719 mmHg 32%
    13:00 +32°C° 0 mm 5 mps 719 mmHg 31%
    14:00 +31°C° 0 mm 3 mps 719 mmHg 30%
    15:00 +31°C° 0 mm 2 mps 718 mmHg 29%
    16:00 +31°C° 0 mm 1 mps 718 mmHg 28%
    17:00 +31°C° 0 mm 2 mps 718 mmHg 29%
    18:00 +30°C° 0 mm 2 mps 718 mmHg 30%
    19:00 +30°C° 0 mm 3 mps 718 mmHg 31%
    20:00 +29°C° 0 mm 3 mps 719 mmHg 34%
    21:00 +28°C° 0 mm 3 mps 719 mmHg 37%
    22:00 +27°C° 0 mm 4 mps 719 mmHg 40%
    23:00 +27°C° 0 mm 4 mps 719 mmHg 42%

    27 March, Wednesday

    Time Temperature Precipitation Wind Pressure Humidity
    00:00 +26°C° 0 mm 4 mps 718 mmHg 45%
    01:00 +26°C° 0 mm 4 mps 718 mmHg 47%
    02:00 +25°C° 0 mm 4 mps 718 mmHg 48%
    03:00 +25°C° 0 mm 5 mps 717 mmHg 48%
    04:00 +25°C° 0 mm 5 mps 717 mmHg 48%
    05:00 +25°C° 0 mm 4 mps 717 mmHg 47%
    06:00 +25°C° 0 mm 4 mps 717 mmHg 47%
    07:00 +25°C° 0 mm 4 mps 718 mmHg 46%
    08:00 +27°C° 0 mm 4 mps 718 mmHg 40%
    09:00 +28°C° 0 mm 5 mps 718 mmHg 34%
    10:00 +30°C° 0 mm 5 mps 719 mmHg 28%
    11:00 +32°C° 0 mm 5 mps 718 mmHg 27%
    12:00 +33°C° 0 mm 5 mps 718 mmHg 25%
    13:00 +34°C° 0 mm 4 mps 718 mmHg 23%
    14:00 +34°C° 0 mm 5 mps 718 mmHg 23%
    15:00 +34°C° 0 mm 5 mps 717 mmHg 23%
    16:00 +34°C° 0 mm 6 mps 717 mmHg 22%
    17:00 +33°C° 0 mm 6 mps 717 mmHg 23%
    18:00 +32°C° 0 mm 6 mps 718 mmHg 24%
    19:00 +29°C° 0 mm 6 mps 718 mmHg 25%
    20:00 +29°C° 0 mm 6 mps 718 mmHg 27%
    21:00 +28°C° 0 mm 5 mps 718 mmHg 30%
    22:00 +27°C° 0 mm 5 mps 718 mmHg 32%
    23:00 +27°C° 0 mm 5 mps 718 mmHg 34%

    28 March, Thursday

    Time Temperature Precipitation Wind Pressure Humidity
    00:00 +26°C° 0 mm 4 mps 717 mmHg 35%
    01:00 +26°C° 0 mm 4 mps 717 mmHg 36%
    02:00 +25°C° 0 mm 3 mps 717 mmHg 38%
    03:00 +24°C° 0 mm 2 mps 717 mmHg 40%
    04:00 +24°C° 0 mm 1 mps 717 mmHg 42%
    05:00 +24°C° 0 mm 1 mps 717 mmHg 42%
    06:00 +24°C° 0 mm 1 mps 718 mmHg 42%
    07:00 +22°C° 0 mm 0 mps 718 mmHg 42%
    08:00 +26°C° 0 mm 1 mps 719 mmHg 36%
    09:00 +27°C° 0 mm 3 mps 719 mmHg 30%
    10:00 +29°C° 0 mm 4 mps 719 mmHg 24%
    11:00 +30°C° 0 mm 3 mps 719 mmHg 21%
    12:00 +31°C° 0 mm 3 mps 718 mmHg 17%
    13:00 +31°C° 0 mm 3 mps 718 mmHg 14%
    14:00 +33°C° 0 mm 3 mps 717 mmHg 14%
    15:00 +33°C° 0 mm 3 mps 716 mmHg 14%
    16:00 +32°C° 0 mm 2 mps 716 mmHg 14%
    17:00 +31°C° 0 mm 2 mps 716 mmHg 14%
    18:00 +31°C° 0 mm 2 mps 716 mmHg 15%
    19:00 +30°C° 0 mm 2 mps 716 mmHg 16%
    20:00 +29°C° 0 mm 2 mps 716 mmHg 17%
    21:00 +29°C° 0 mm 2 mps 716 mmHg 18%
    22:00 +28°C° 0 mm 2 mps 716 mmHg 19%
    23:00 +27°C° 0 mm 2 mps 716 mmHg 20%
    Show more